Location: Bauerbach
(50.4985°N, 10.3912°E)
Time: 23:37:44
(UTC+00:00)

Cosmos 2084 Rocket - Pass Details

Date: 13 January 2026
Orbit: 541 x 571 km, 62.8° (Epoch: 16 February)

Event Time Altitude Azimuth Distance (km) Brightness Sun altitude
Exits shadow 06:03:26 11° 322° (NW) 1,789 5.4 -10.9°
Maximum altitude 06:07:20 51° 38° (NE) 721 4.0 -10.3°
Drops below altitude 10° 06:11:28 10° 116° (ESE) 1,873 7.7 -9.7°
Sets 06:13:45 0° 121° (ESE) 2,770 9.0 -9.4°
